Location: Blue Sky Observatory
(43.1153°N, 70.9036°W)
Time: 17:57:59
(UTC-05:00)

Daily predictions for brighter satellites

Satellite Brightness Start Highest point End
(mag) Time Altitude Azimuth Time Altitude Azimuth Time Altitude Azimuth
Ariane Rocket 4.0 17:42:54 10° S 17:47:52 54° W 17:52:53 10° NNW
Cosmos 1812 3.4 17:47:33 10° N 17:51:07 34° ENE 17:54:40 10° SE
ALOS 2.3 17:47:30 10° SSE 17:52:10 81° ENE 17:56:52 10° N
Cosmos 2333 Rocket 3.2 17:47:15 10° NNW 17:52:46 53° WSW 17:58:13 10° S
Cosmos 2084 Rocket 3.8 17:49:08 10° SW 17:53:31 70° NW 17:57:42 10° NNE
SKYMED 2 3.6 17:50:02 10° NNE 17:54:24 82° ESE 17:58:44 10° S
Cosmos 44 3.7 17:51:17 10° NNW 17:56:08 49° NE 18:01:13 10° SE
Cosmos 2082 3.7 17:51:20 10° S 17:56:51 62° ESE 18:02:25 10° NNE
SL-8 R/B 4.1 17:53:09 10° SW 17:57:45 50° SE 18:02:22 10° ENE
MONITOR-E 4.0 17:55:15 10° SSE 17:58:16 83° ENE 18:01:18 10° N
Cosmos 2056 Rocket 4.1 17:54:22 10° NNW 17:59:46 68° WSW 18:05:08 10° S
Aureole 3 4.3 17:56:39 10° SSE 18:02:23 50° E 18:06:58 10° NNE
CZ-2C R/B 4.3 18:00:26 10° N 18:04:50 61° WNW 18:09:12 10° SSW
Lacrosse 5 3.0 18:00:53 10° WNW 18:05:43 47° SW 18:10:32 10° SSE
Cosmos 1452 Rocket 3.6 18:00:47 10° NNW 18:05:58 56° ENE 18:11:08 10° SE
Resurs 01 Rocket 3.5 18:05:04 11° E 18:06:34 12° ENE 18:08:23 10° NE
DNEPR-1 R/B 3.6 18:03:18 10° SW 18:07:29 77° NW 18:11:52 10° NNE
SPOT 3 Rocket 3.5 18:04:16 10° SSE 18:09:26 76° ENE 18:14:40 10° N
BREEZE-M DEB (TANK) 2.4 18:08:00 10° NW 18:10:19 33° NNE 18:12:11 15° E
Iridium 4 Rocket 3.8 18:07:20 10° NNE 18:11:51 35° E 18:16:00 10° SSE
ATLAS 3B R/B 3.8 18:05:40 10° WSW 18:12:32 45° NW 18:19:09 10° NNE
Cosmos 158 Rocket 4.1 18:08:55 10° S 18:13:34 45° ESE 18:18:13 10° NNE
NOSS 3-2 (A) 4.0 18:09:41 10° SW 18:15:34 60° NW 18:22:09 10° NNE
Cosmos 2233 Rocket 4.5 18:11:13 10° NNW 18:17:27 67° W 18:23:36 10° S
Cosmos 1437 Rocket 4.0 18:15:28 10° SE 18:18:39 23° E 18:21:53 10° NE
EO 1 Del DPAF 3.1 18:15:45 10° NNE 18:19:36 75° ESE 18:23:24 10° S
Cosmos 1420 Rocket 4.0 18:21:23 10° NNW 18:26:40 68° ENE 18:31:56 10° SSE
Cosmos 1378 Rocket 3.6 18:23:50 10° N 18:28:12 58° E 18:32:33 10° SSE
Cosmos 405 3.5 18:25:07 10° SSW 18:28:35 61° WNW 18:32:05 10° N
Cosmos 1939 Rocket 4.5 18:29:52 17° ENE 18:29:52 17° ENE 18:32:24 10° NNE
USA 186 3.8 18:31:32 15° NE 18:31:32 15° NE 18:32:38 10° NNE
Landsat 4 4.2 18:26:44 10° N 18:30:26 62° WNW 18:34:09 10° SSW
FengYun 1-2 T 4.2 18:29:49 10° SSE 18:35:20 84° ENE 18:40:51 10° NNW
Cosmos 1464 Rocket 3.9 18:29:17 10° N 18:35:25 74° E 18:41:32 10° SSE
Cosmos 1782 Rocket 4.0 18:32:15 10° SSE 18:36:22 38° E 18:40:28 10° NNE
Sich 1 Rocket 3.7 18:33:00 10° S 18:37:23 53° E 18:41:44 10° NNE
Cosmos 1943 4.4 18:39:53 10° N 18:44:15 22° NE 18:45:17 21° ENE
ATLAS CENTAUR R/B 3.5 18:44:02 10° N 18:45:42 13° NE 18:45:42 13° NE
ARGOS Delta rocket 3.9 18:48:38 10° NNE 18:53:25 52° E 18:57:54 10° S
Okean 2 Rocket 3.5 18:49:42 10° SSE 18:53:42 36° E 18:57:44 10° NNE
USA 215 3.3 18:49:59 17° ENE 18:55:09 63° SE 19:01:36 10° SW
SeaSat 1 2.4 18:53:05 17° SE 18:56:53 68° ENE 19:01:47 10° NNW
Cosmos 2237 Rocket 4.4 18:53:39 10° NW 18:58:15 26° WSW 19:02:49 10° SSW
Cosmos 2227 Rocket 3.7 18:53:23 10° WSW 18:58:32 36° WNW 19:03:44 10° N
SJ-6B 2.6 18:55:43 10° SSE 18:59:29 90° ENE 19:03:21 10° NNW
Envisat 2.9 18:54:41 10° SSE 18:59:42 66° ENE 19:04:45 10° N
Thor Agena Rocket 3.4 18:55:08 10° NNE 19:00:13 66° ESE 19:05:13 10° S
SL-16 R/B 2.7 18:56:57 10° NNW 19:02:32 60° WSW 19:08:04 10° S
Tiangong 2 3.2 19:02:24 10° WSW 19:04:48 20° SSW 19:05:47 17° S
Cosmos 44 Rocket 3.9 19:01:25 10° NW 19:06:23 59° WSW 19:11:24 10° SSE
FREGAT/IRIS 4.4 19:03:48 10° SSW 19:06:29 32° W 19:09:13 10° NNW
Meteor 1-13 Rocket 4.2 19:02:00 10° N 19:07:26 53° ENE 19:10:14 27° SE
USA 32 4.0 19:02:22 10° S 19:07:36 82° W 19:12:51 10° N
Cosmos 1269 Rocket 3.9 19:03:51 10° SSW 19:09:08 77° ESE 19:14:26 10° NNE
Cosmos 2034 Rocket 4.1 19:04:24 10° N 19:10:50 82° W 19:17:10 10° S
HJ-1C 4.4 19:08:12 10° S 19:11:31 49° W 19:14:51 10° NNW
Cosmos 2297 Rocket 3.9 19:07:31 10° WSW 19:12:32 32° NW 19:17:38 10° N
Okean 1 3.8 19:09:14 10° NNW 19:13:11 60° W 19:17:05 10° S
Cosmos 1110 Rocket 4.1 19:08:18 10° NNW 19:13:28 52° ENE 19:14:27 46° ESE
Cosmos 921 Rocket 3.5 19:15:41 10° NNW 19:20:11 63° WSW 19:23:43 16° S
Cosmos 2346 Rocket 4.4 19:14:29 10° S 19:20:38 66° E 19:26:44 10° NNE
Cosmos 1603 3.6 19:15:26 10° NNW 19:21:06 67° ENE 19:22:38 47° SE
ERS-2 4.3 19:19:08 10° SSW 19:22:17 26° W 19:25:26 10° NW
Cosmos 1634 Rocket 4.0 19:18:11 10° N 19:24:13 53° ENE 19:25:22 47° ESE
CZ-2D R/B 4.1 19:22:45 10° S 19:26:32 51° W 19:30:21 10° NNW
Cosmos 1816 Rocket 4.4 19:21:20 10° S 19:27:42 88° E 19:34:06 10° N
H-2A R/B 4.3 19:31:19 12° NNE 19:31:19 12° NNE 19:31:59 10° NNE
USA 267 3.6 19:27:11 41° ENE 19:28:55 51° NNE 19:35:12 10° NW
Resurs 1-3 3.4 19:30:55 82° NE 19:30:55 82° NE 19:35:12 10° NNW
CENTAUR R/B 3.1 19:28:06 10° SW 19:34:05 57° NW 19:40:44 11° NNE
CZ-4C R/B 3.2 19:30:00 10° NNW 19:36:41 44° NE 19:37:37 43° ENE
SL-8 R/B 4.0 19:35:36 10° W 19:40:19 57° NNW 19:40:31 56° N
Cosmos 1975 Rocket 4.2 19:38:07 10° NNW 19:42:20 44° W 19:46:31 10° SSW
Resurs 01 Rocket 1.7 19:42:38 72° WNW 19:42:38 72° WNW 19:46:52 10° NNW
Cosmos 1331 Rocket 3.9 19:41:09 10° NNW 19:46:26 87° NNE 19:46:26 87° NNE
Spot 2 Rocket 3.4 19:49:48 82° W 19:49:48 82° W 19:54:48 10° NNW
Geosat 4.0 19:51:12 74° NNW 19:51:30 77° WNW 19:56:31 10° SW
Meteor 2-4 Rocket 3.8 19:47:49 10° NNW 19:53:40 77° W 19:54:53 56° SSW
Meteor 1-11 Rocket 3.7 19:48:50 10° SSW 19:54:23 77° W 20:00:07 10° N
COSMOS 2455 3.7 19:56:04 10° SSW 19:59:33 37° SSW 19:59:33 37° SSW
ATLAS CENTAUR R/B 4.1 20:21:20 10° NNW 20:21:59 14° NNW 20:21:59 14° NNW
Cosmos 1943 4.1 20:23:11 10° NNW 20:27:09 44° NW 20:27:09 44° NW
USA 215 3.9 20:37:21 46° N 20:38:01 47° NNW 20:44:13 10° W
CZ-4C R/B 4.1 21:18:29 10° NW 21:22:51 37° WNW 21:22:51 37° WNW
